DT_LEITURA;HR_LEITURA;MED-PressaoAtm[hPa];VAL-TempExt[oC];VAL-UmidExt[%UR];VAL-TempInt[oC];VAL-UmidInt[%UR];Dir-Vento[grau];Vel-Vento[m/s];Precipitação[mm/h]
08/08/2026;00:00:00;1012,3;-35,2;0;26,1;82;61;0,3;0,0
08/08/2026;00:05:00;1012,3;-35,2;0;26,1;82;18;0,4;0,0
08/08/2026;00:10:00;1012,2;-35,2;0;26,1;82;41;0,4;0,0
08/08/2026;00:15:00;1012,2;-35,3;0;26,1;83;27;0,3;0,0
08/08/2026;00:20:00;1012,2;-35,3;0;26,1;83;31;0,3;0,0
08/08/2026;00:25:00;1012,1;-35,3;0;26,1;83;13;0,5;0,0
08/08/2026;00:30:00;1012,1;-35,3;0;26,1;83;9;0,4;0,0
08/08/2026;00:35:00;1012,0;-35,3;0;26,1;83;4;0,4;0,0
08/08/2026;00:40:00;1012,0;-35,4;0;26,1;83;21;0,4;0,0
08/08/2026;00:45:00;1011,9;-35,4;0;26,1;83;17;0,4;0,0
08/08/2026;00:50:00;1011,9;-35,4;0;26,1;83;8;0,6;0,0
08/08/2026;00:55:00;1011,9;-35,4;0;26,1;83;42;0,3;0,0
08/08/2026;01:00:00;1011,9;-35,4;0;26,1;83;36;0,2;0,0
08/08/2026;01:05:00;1011,8;-35,4;0;26,1;83;330;0,4;0,0
08/08/2026;01:10:00;1011,8;-35,4;0;26,1;83;103;0,2;0,0
08/08/2026;01:15:00;1011,7;-35,4;0;26,2;83;23;0,3;0,0
08/08/2026;01:20:00;1011,7;-35,5;0;26,2;83;104;0,2;0,0
08/08/2026;01:25:00;1011,7;-35,5;0;26,2;83;52;0,2;0,0
08/08/2026;01:30:00;1011,6;-35,5;0;26,2;83;56;0,3;0,0
08/08/2026;01:35:00;1011,6;-35,5;0;26,2;83;97;0,3;0,0
08/08/2026;01:40:00;1011,5;-35,5;0;26,2;83;116;0,2;0,0
08/08/2026;01:45:00;1011,5;-35,5;0;26,2;83;175;0,3;0,0
08/08/2026;01:50:00;1011,4;-35,5;0;26,2;83;128;0,3;0,0
08/08/2026;01:55:00;1011,4;-35,5;0;26,2;83;131;0,5;0,0
08/08/2026;02:00:00;1011,3;-35,5;0;26,2;83;136;0,4;0,0
08/08/2026;02:05:00;1011,3;-35,6;0;26,2;84;131;0,4;0,0
08/08/2026;02:10:00;1011,2;-35,6;0;26,2;84;134;0,4;0,0
08/08/2026;02:15:00;1011,2;-35,6;0;26,1;84;146;0,3;0,0
08/08/2026;02:20:00;1011,1;-35,6;0;26,1;84;130;0,3;0,0
08/08/2026;02:25:00;1011,0;-35,6;0;26,1;84;121;0,5;0,0
08/08/2026;02:30:00;1010,9;-35,6;0;26,0;84;123;0,4;0,0
08/08/2026;02:35:00;1010,9;-35,6;0;26,0;84;162;0,3;0,0
08/08/2026;02:40:00;1010,8;-35,6;0;25,9;84;44;0,2;0,0
08/08/2026;02:45:00;1010,8;-35,6;0;25,9;84;88;0,2;0,0
08/08/2026;02:50:00;1010,8;-35,6;0;25,9;84;295;0,2;0,0
08/08/2026;02:55:00;1010,7;-35,6;0;25,9;85;291;0,2;0,0
08/08/2026;03:00:00;1010,7;-35,6;0;25,9;85;225;0,2;0,0
08/08/2026;03:05:00;1010,7;-35,7;0;25,9;85;84;0,2;0,0
08/08/2026;03:10:00;1010,7;-35,7;0;25,9;85;48;0,1;0,0
08/08/2026;03:15:00;1010,6;-35,7;0;25,9;85;261;0,2;0,0
08/08/2026;03:20:00;1010,6;-35,7;0;25,8;85;125;0,2;0,0
08/08/2026;03:25:00;1010,5;-35,7;0;25,8;85;158;0,2;0,0
08/08/2026;03:30:00;1010,5;-35,7;0;25,9;85;300;0,2;0,0
08/08/2026;03:35:00;1010,5;-35,7;0;25,8;85;27;0,3;0,0
08/08/2026;03:40:00;1010,6;-35,7;0;25,8;85;92;0,2;0,0
08/08/2026;03:45:00;1010,5;-35,7;0;25,8;85;123;0,3;0,0
08/08/2026;03:50:00;1010,5;-35,8;0;25,8;85;128;0,3;0,0
08/08/2026;03:55:00;1010,5;-35,8;0;25,8;85;137;0,3;0,0
08/08/2026;04:00:00;1010,5;-35,8;0;25,8;85;137;0,5;0,0
08/08/2026;04:05:00;1010,5;-35,8;0;25,8;85;152;0,5;0,0
08/08/2026;04:10:00;1010,6;-35,8;0;25,7;85;143;0,4;0,0
08/08/2026;04:15:00;1010,6;-35,8;0;25,7;85;131;0,3;0,0
08/08/2026;04:20:00;1010,7;-35,8;0;25,7;85;193;0,3;0,0
08/08/2026;04:25:00;1010,7;-35,8;0;25,7;86;144;0,3;0,0
08/08/2026;04:30:00;1010,7;-35,9;0;25,6;86;13;0,3;0,0
08/08/2026;04:35:00;1010,7;-35,8;0;25,6;86;317;0,3;0,0
08/08/2026;04:40:00;1010,8;-35,8;0;25,7;86;357;0,5;0,0
08/08/2026;04:45:00;1010,8;-35,8;0;25,7;86;8;0,5;0,0
08/08/2026;04:50:00;1010,8;-35,8;0;25,7;86;357;0,5;0,0
08/08/2026;04:55:00;1010,8;-35,8;0;25,7;86;3;0,5;0,0
08/08/2026;05:00:00;1010,9;-35,8;0;25,7;86;3;0,4;0,0
08/08/2026;05:05:00;1010,9;-35,9;0;25,7;86;359;0,5;0,0
08/08/2026;05:10:00;1010,9;-35,9;0;25,7;86;1;0,5;0,0
08/08/2026;05:15:00;1010,9;-35,9;0;25,8;86;6;0,5;0,0
08/08/2026;05:20:00;1011,0;-35,9;0;25,8;86;9;0,5;0,0
08/08/2026;05:25:00;1011,0;-35,8;1;25,7;86;5;0,5;0,0
08/08/2026;05:30:00;1011,0;-35,9;1;25,7;86;3;0,6;0,0
08/08/2026;05:35:00;1011,0;-35,9;0;25,7;86;8;0,6;0,0
08/08/2026;05:40:00;1011,0;-35,9;0;25,6;86;23;0,3;0,0
08/08/2026;05:45:00;1011,1;-35,9;0;25,6;86;348;0,6;0,0
08/08/2026;05:50:00;1011,1;-35,9;0;25,6;86;9;0,3;0,0
08/08/2026;05:55:00;1011,2;-35,9;0;25,6;86;46;0,4;0,0
08/08/2026;06:00:00;1011,3;-35,9;0;25,5;87;44;0,4;0,0
08/08/2026;06:05:00;1011,3;-35,9;0;25,5;87;5;0,4;0,0
08/08/2026;06:10:00;1011,3;-35,9;0;25,5;87;9;0,4;0,0
08/08/2026;06:15:00;1011,4;-36,0;0;25,5;87;25;0,4;0,0
08/08/2026;06:20:00;1011,4;-36,0;0;25,5;87;21;0,3;0,0
08/08/2026;06:25:00;1011,4;-36,0;0;25,4;87;42;0,3;0,0
08/08/2026;06:30:00;1011,4;-36,0;0;25,4;87;351;0,3;0,0
08/08/2026;06:35:00;1011,4;-36,0;0;25,4;87;86;0,3;0,0
08/08/2026;06:40:00;1011,5;-36,0;0;25,4;87;347;0,5;0,0
08/08/2026;06:45:00;1011,5;-36,0;0;25,3;87;40;0,5;0,0
08/08/2026;06:50:00;1011,5;-36,0;0;25,3;87;338;0,4;0,0
08/08/2026;06:55:00;1011,6;-36,0;0;25,3;87;357;0,3;0,0
08/08/2026;07:00:00;1011,7;-36,0;0;25,4;87;340;0,5;0,0
08/08/2026;07:05:00;1011,7;-36,0;0;25,4;87;341;0,5;0,0
08/08/2026;07:10:00;1011,8;-36,0;0;25,4;87;333;0,5;0,0
08/08/2026;07:15:00;1011,9;-36,0;0;25,4;87;360;0,5;0,0
08/08/2026;07:20:00;1012,0;-36,0;0;25,5;87;74;0,4;0,0
08/08/2026;07:25:00;1012,0;-36,0;0;25,5;87;360;0,4;0,0
08/08/2026;07:30:00;1012,1;-36,0;0;25,6;87;13;0,4;0,0
08/08/2026;07:35:00;1012,2;-36,0;0;25,7;87;18;0,3;0,0
08/08/2026;07:40:00;1012,2;-36,1;0;25,8;87;70;0,3;0,0
08/08/2026;07:45:00;1012,2;-36,1;0;25,9;87;13;0,3;0,0
08/08/2026;07:50:00;1012,3;-36,1;0;26,0;86;323;0,4;0,0
08/08/2026;07:55:00;1012,3;-36,1;0;26,2;86;25;0,4;0,0
08/08/2026;08:00:00;1012,4;-36,1;0;26,3;86;247;0,5;0,0
08/08/2026;08:05:00;1012,5;-36,1;0;26,4;86;263;0,3;0,0
08/08/2026;08:10:00;1012,5;-36,1;0;26,5;85;337;0,4;0,0
08/08/2026;08:15:00;1012,6;-36,1;0;26,6;85;334;0,5;0,0
08/08/2026;08:20:00;1012,7;-36,1;0;26,7;84;315;0,3;0,0
08/08/2026;08:25:00;1012,9;-36,1;0;26,8;84;341;0,5;0,0
08/08/2026;08:30:00;1012,9;-36,1;0;26,9;84;332;0,4;0,0
08/08/2026;08:35:00;1013,0;-36,1;0;27,1;84;355;0,4;0,0
08/08/2026;08:40:00;1013,0;-36,1;0;27,2;83;31;0,4;0,0
08/08/2026;08:45:00;1013,0;-36,1;0;27,4;83;130;0,7;0,0
08/08/2026;08:50:00;1013,1;-36,1;0;27,6;83;163;0,5;0,0
08/08/2026;08:55:00;1013,2;-36,1;0;27,8;83;139;0,9;0,0
08/08/2026;09:00:00;1013,3;-36,1;0;28,0;82;143;0,7;0,0
08/08/2026;09:05:00;1013,3;-36,1;0;28,2;82;144;1,1;0,0
08/08/2026;09:10:00;1013,4;-36,1;0;28,4;81;185;0,4;0,0
08/08/2026;09:15:00;1013,4;-36,1;0;28,6;80;282;0,4;0,0
08/08/2026;09:20:00;1013,4;-36,1;0;28,7;80;188;0,3;0,0
08/08/2026;09:25:00;1013,5;-36,0;0;29,0;80;148;0,8;0,0
08/08/2026;09:30:00;1013,5;-36,0;0;29,4;79;134;0,9;0,0
08/08/2026;09:35:00;1013,5;-35,5;0;30,1;76;140;1,2;0,0
08/08/2026;09:40:00;1013,5;-34,3;0;30,7;73;144;1,2;0,0
08/08/2026;09:45:00;1013,4;-31,4;0;31,4;69;139;1,5;0,0
08/08/2026;09:50:00;1013,4;-26,4;0;32,0;66;132;1,7;0,0
08/08/2026;09:55:00;1013,5;-21,2;0;32,5;63;134;1,7;0,0
08/08/2026;10:00:00;1013,5;-18,6;1;32,8;61;138;1,8;0,0
08/08/2026;10:05:00;1013,5;-17,4;2;33,0;61;137;1,6;0,0
08/08/2026;10:10:00;1013,5;-16,6;3;33,3;60;134;1,5;0,0
08/08/2026;10:15:00;1013,5;-15,1;3;33,6;59;147;1,4;0,0
08/08/2026;10:20:00;1013,5;-15,6;3;33,9;58;136;1,5;0,0
08/08/2026;10:25:00;1013,5;-15,4;3;34,1;57;130;1,6;0,0
08/08/2026;10:30:00;1013,5;-15,2;3;34,4;56;134;1,9;0,0
08/08/2026;10:35:00;1013,5;-15,0;3;34,6;55;137;1,5;0,0
08/08/2026;10:40:00;1013,5;-14,8;3;34,8;55;148;1,4;0,0
08/08/2026;10:45:00;1013,6;-14,7;3;34,9;55;126;1,6;0,0
08/08/2026;10:50:00;1013,5;-14,6;3;34,7;56;131;1,6;0,0
08/08/2026;10:55:00;1013,5;-14,5;3;34,8;55;141;1,6;0,0
08/08/2026;11:00:00;1013,5;-13,6;3;34,9;55;140;1,5;0,0
08/08/2026;11:05:00;1013,5;-14,3;3;34,9;54;133;1,6;0,0
08/08/2026;11:10:00;1013,4;-14,2;4;34,8;54;132;2,0;0,0
08/08/2026;11:15:00;1013,4;-14,2;4;34,9;54;129;1,6;0,0
08/08/2026;11:20:00;1013,4;-14,2;4;35,1;53;140;1,3;0,0
08/08/2026;11:25:00;1013,4;-14,1;4;35,4;52;127;1,9;0,0
08/08/2026;11:30:00;1013,3;-14,0;4;35,6;51;128;1,7;0,0
08/08/2026;11:35:00;1013,3;-14,0;4;35,7;50;131;1,7;0,0
08/08/2026;11:40:00;1013,3;-14,0;4;35,6;50;145;1,5;0,0
08/08/2026;11:45:00;1013,2;-13,1;4;35,3;52;137;1,9;0,0
08/08/2026;11:50:00;1013,2;-13,9;4;34,9;52;141;1,7;0,0
08/08/2026;11:55:00;1013,2;-13,9;4;34,7;53;133;1,6;0,0
08/08/2026;12:00:00;1013,1;-13,9;4;34,7;53;146;1,7;0,0
08/08/2026;12:05:00;1013,0;-13,8;4;34,7;53;137;1,6;0,0
08/08/2026;12:10:00;1013,0;-13,8;4;34,9;53;137;1,4;0,0
08/08/2026;12:15:00;1012,9;-13,8;4;35,1;53;146;1,3;0,0
08/08/2026;12:20:00;1012,9;-13,8;4;35,3;51;141;1,7;0,0
08/08/2026;12:25:00;1012,7;-13,8;4;35,5;51;144;1,7;0,0
08/08/2026;12:30:00;1012,7;-12,8;4;35,7;52;141;1,2;0,0
08/08/2026;12:35:00;1012,6;-13,7;4;36,0;51;124;1,3;0,0
08/08/2026;12:40:00;1012,5;-13,6;4;36,3;50;138;1,4;0,0
08/08/2026;12:45:00;1012,5;-13,7;4;36,6;48;125;1,7;0,0
08/08/2026;12:50:00;1012,3;-13,7;4;36,9;47;128;1,7;0,0
08/08/2026;12:55:00;1012,3;-13,6;4;37,2;47;135;1,6;0,0
08/08/2026;13:00:00;1012,2;-13,6;4;37,4;46;133;1,7;0,0
08/08/2026;13:05:00;1012,1;-13,6;4;37,6;46;134;1,7;0,0
08/08/2026;13:10:00;1012,1;-13,6;4;37,7;45;128;1,8;0,0
08/08/2026;13:15:00;1012,0;-13,6;4;37,8;45;127;1,8;0,0
08/08/2026;13:20:00;1011,9;-13,6;4;37,9;45;127;1,7;0,0
08/08/2026;13:25:00;1011,8;-13,5;4;38,0;46;138;1,4;0,0
08/08/2026;13:30:00;1011,7;-12,7;4;38,2;46;138;1,4;0,0
08/08/2026;13:35:00;1011,6;-13,5;4;38,5;44;130;1,7;0,0
08/08/2026;13:40:00;1011,5;-13,5;4;38,6;43;127;1,6;0,0
08/08/2026;13:45:00;1011,4;-13,5;4;38,8;44;129;1,7;0,0
08/08/2026;13:50:00;1011,4;-13,5;4;38,9;44;132;1,4;0,0
08/08/2026;13:55:00;1011,3;-13,4;4;39,1;43;133;1,5;0,0
08/08/2026;14:00:00;1011,2;-13,5;4;39,3;43;141;1,2;0,0
08/08/2026;14:05:00;1011,2;-13,5;4;39,5;43;131;1,4;0,0
08/08/2026;14:10:00;1011,1;-13,4;4;39,7;42;140;1,3;0,0
08/08/2026;14:15:00;1011,0;-13,4;4;39,9;42;135;1,4;0,0
08/08/2026;14:20:00;1010,9;-13,4;4;40,0;41;128;1,2;0,0
08/08/2026;14:25:00;1010,9;-13,4;4;40,0;41;135;1,4;0,0
08/08/2026;14:30:00;1010,8;-13,5;4;40,1;41;123;1,5;0,0
08/08/2026;14:35:00;1010,7;-13,5;4;40,4;40;123;1,4;0,0
08/08/2026;14:40:00;1010,7;-13,4;4;40,6;39;133;1,3;0,0
08/08/2026;14:45:00;1010,6;-12,5;4;40,5;39;126;1,4;0,0
08/08/2026;14:50:00;1010,5;-13,3;4;40,0;40;154;0,8;0,0
08/08/2026;14:55:00;1010,6;-13,3;4;40,1;41;153;0,9;0,0
08/08/2026;15:00:00;1010,5;-13,4;4;40,3;40;149;1,0;0,0
08/08/2026;15:05:00;1010,5;-13,4;4;40,5;40;139;1,1;0,0
08/08/2026;15:10:00;1010,5;-13,5;4;40,3;39;128;1,3;0,0
08/08/2026;15:15:00;1010,4;-13,4;4;40,2;39;131;1,2;0,0
08/08/2026;15:20:00;1010,2;-13,4;4;40,3;39;123;1,2;0,0
08/08/2026;15:25:00;1010,2;-13,3;4;40,5;39;123;1,3;0,0
08/08/2026;15:30:00;1010,1;-13,4;4;40,6;37;126;1,5;0,0
08/08/2026;15:35:00;1010,0;-13,4;4;40,4;38;130;1,5;0,0
08/08/2026;15:40:00;1010,1;-13,3;4;40,3;38;128;1,6;0,0
08/08/2026;15:45:00;1009,9;-12,4;4;39,9;39;130;1,4;0,0
08/08/2026;15:50:00;1009,9;-13,3;4;39,7;39;142;1,3;0,0
08/08/2026;15:55:00;1009,9;-13,4;4;39,4;39;123;1,4;0,0
08/08/2026;16:00:00;1009,8;-13,4;4;39,4;38;127;1,5;0,0
08/08/2026;16:05:00;1009,7;-13,6;4;39,4;38;129;1,1;0,0
08/08/2026;16:10:00;1009,7;-13,6;4;39,4;38;133;0,8;0,0
08/08/2026;16:15:00;1009,7;-13,6;4;39,4;39;122;0,7;0,0
08/08/2026;16:20:00;1009,6;-13,5;4;39,4;39;134;1,1;0,0
08/08/2026;16:25:00;1009,6;-13,5;4;39,4;38;125;1,2;0,0
08/08/2026;16:30:00;1009,6;-12,5;4;38,9;39;133;1,0;0,0
08/08/2026;16:35:00;1009,6;-13,4;4;38,3;40;136;1,1;0,0
08/08/2026;16:40:00;1009,6;-13,4;4;37,7;41;129;1,4;0,0
08/08/2026;16:45:00;1009,6;-13,4;5;37,1;43;127;1,2;0,0
08/08/2026;16:50:00;1009,6;-13,4;5;36,6;45;127;1,1;0,0
08/08/2026;16:55:00;1009,5;-13,5;5;36,2;46;125;1,2;0,0
08/08/2026;17:00:00;1009,5;-13,4;5;35,9;47;134;1,0;0,0
08/08/2026;17:05:00;1009,6;-13,5;5;35,6;47;118;1,2;0,0
08/08/2026;17:10:00;1009,7;-13,5;5;35,3;47;125;1,3;0,0
08/08/2026;17:15:00;1009,7;-12,7;5;35,1;49;125;1,1;0,0
08/08/2026;17:20:00;1009,7;-13,5;5;34,9;50;131;1,3;0,0
08/08/2026;17:25:00;1009,8;-13,6;5;34,7;50;120;1,4;0,0
08/08/2026;17:30:00;1009,8;-13,6;5;34,5;50;128;1,8;0,0
08/08/2026;17:35:00;1009,8;-13,7;5;34,2;51;122;1,7;0,0
08/08/2026;17:40:00;1009,7;-13,7;5;34,0;53;121;1,3;0,0
08/08/2026;17:45:00;1009,6;-13,8;5;33,7;54;127;1,2;0,0
08/08/2026;17:50:00;1009,7;-13,9;5;33,5;54;124;1,4;0,0
08/08/2026;17:55:00;1009,7;-13,9;5;33,4;54;127;1,4;0,0
08/08/2026;18:00:00;1009,7;-14,0;5;33,2;55;130;1,3;0,0
08/08/2026;18:05:00;1009,8;-14,0;5;33,0;56;123;1,2;0,0
08/08/2026;18:10:00;1009,8;-14,1;5;32,9;56;121;1,1;0,0
08/08/2026;18:15:00;1009,9;-14,2;5;32,8;57;122;1,2;0,0
08/08/2026;18:20:00;1009,9;-14,3;5;32,7;58;133;1,2;0,0
08/08/2026;18:25:00;1010,0;-14,5;5;32,5;58;124;1,3;0,0
08/08/2026;18:30:00;1010,2;-13,8;5;32,4;58;119;1,4;0,0
08/08/2026;18:35:00;1010,2;-14,7;5;32,3;59;118;1,6;0,0
08/08/2026;18:40:00;1010,2;-14,9;5;32,2;59;120;1,6;0,0
08/08/2026;18:45:00;1010,3;-15,1;5;32,0;59;117;1,5;0,0
08/08/2026;18:50:00;1010,3;-15,3;5;31,9;59;124;1,4;0,0
08/08/2026;18:55:00;1010,3;-15,5;5;31,8;60;116;1,5;0,0
08/08/2026;19:00:00;1010,4;-15,7;5;31,7;60;116;1,2;0,0
08/08/2026;19:05:00;1010,4;-16,0;5;31,6;60;120;1,5;0,0
08/08/2026;19:10:00;1010,4;-16,2;5;31,5;61;119;1,3;0,0
08/08/2026;19:15:00;1010,5;-15,7;5;31,4;61;125;1,3;0,0
08/08/2026;19:20:00;1010,5;-16,7;5;31,4;62;131;1,4;0,0
08/08/2026;19:25:00;1010,6;-17,0;5;31,3;63;131;1,1;0,0
08/08/2026;19:30:00;1010,7;-17,2;5;31,2;63;135;1,0;0,0
08/08/2026;19:35:00;1010,7;-17,6;5;31,2;64;137;1,0;0,0
08/08/2026;19:40:00;1010,7;-17,9;5;31,1;64;144;1,3;0,0
08/08/2026;19:45:00;1010,9;-18,4;5;31,0;64;128;1,3;0,0
08/08/2026;19:50:00;1010,9;-18,8;5;30,9;65;133;1,3;0,0
08/08/2026;19:55:00;1010,9;-19,3;5;30,8;65;150;1,2;0,0
08/08/2026;20:00:00;1011,1;-19,4;5;30,7;65;162;1,1;0,0
08/08/2026;20:05:00;1011,2;-20,4;5;30,7;66;149;0,9;0,0
08/08/2026;20:10:00;1011,1;-20,9;5;30,6;66;133;1,1;0,0
08/08/2026;20:15:00;1011,2;-21,6;5;30,5;66;124;1,2;0,0
08/08/2026;20:20:00;1011,3;-22,1;5;30,4;66;131;1,0;0,0
08/08/2026;20:25:00;1011,4;-22,4;5;30,4;66;120;1,1;0,0
08/08/2026;20:30:00;1011,4;-22,8;5;30,4;67;150;1,2;0,0
08/08/2026;20:35:00;1011,5;-23,1;5;30,3;67;157;0,7;0,0
08/08/2026;20:40:00;1011,6;-23,4;5;30,3;67;160;0,9;0,0
08/08/2026;20:45:00;1011,6;-23,4;5;30,2;68;140;0,9;0,0
08/08/2026;20:50:00;1011,8;-23,9;5;30,2;68;140;1,0;0,0
08/08/2026;20:55:00;1011,9;-24,3;5;30,1;68;139;1,0;0,0
08/08/2026;21:00:00;1012,0;-24,6;5;30,1;68;129;1,0;0,0
08/08/2026;21:05:00;1012,1;-24,9;5;30,0;69;143;1,0;0,0
08/08/2026;21:10:00;1012,2;-25,3;5;29,9;69;125;0,8;0,0
08/08/2026;21:15:00;1012,3;-25,7;5;29,9;69;129;1,0;0,0
08/08/2026;21:20:00;1012,3;-26,1;5;29,9;69;118;1,2;0,0
08/08/2026;21:25:00;1012,4;-26,7;5;29,8;70;138;0,6;0,0
08/08/2026;21:30:00;1012,5;-27,4;5;29,8;70;138;0,8;0,0
08/08/2026;21:35:00;1012,6;-27,9;5;29,8;70;127;1,1;0,0
08/08/2026;21:40:00;1012,6;-28,4;5;29,8;70;129;1,5;0,0
08/08/2026;21:45:00;1012,7;-28,6;5;29,7;70;130;1,4;0,0
08/08/2026;21:50:00;1012,8;-29,1;5;29,7;70;132;1,1;0,0
08/08/2026;21:55:00;1012,8;-29,4;5;29,6;70;134;1,3;0,0
08/08/2026;22:00:00;1012,8;-29,7;5;29,6;70;153;1,0;0,0
08/08/2026;22:05:00;1012,8;-30,0;5;29,5;70;154;0,8;0,0
08/08/2026;22:10:00;1012,8;-30,3;5;29,5;71;146;0,8;0,0
08/08/2026;22:15:00;1012,9;-30,6;5;29,4;71;154;0,8;0,0
08/08/2026;22:20:00;1012,9;-30,8;5;29,3;71;181;0,4;0,0
08/08/2026;22:25:00;1012,9;-31,1;6;29,3;71;162;0,4;0,0
08/08/2026;22:30:00;1013,0;-31,2;6;29,3;71;148;0,4;0,0
08/08/2026;22:35:00;1013,0;-31,4;6;29,3;72;178;0,5;0,0
08/08/2026;22:40:00;1013,1;-31,6;5;29,2;72;151;0,8;0,0
08/08/2026;22:45:00;1013,1;-31,8;5;29,2;72;152;0,7;0,0
08/08/2026;22:50:00;1013,2;-32,0;5;29,1;72;154;0,7;0,0
08/08/2026;22:55:00;1013,2;-32,3;3;29,0;72;150;0,9;0,0
08/08/2026;23:00:00;1013,2;-32,5;2;28,9;73;155;0,8;0,0
08/08/2026;23:05:00;1013,1;-32,6;2;28,9;73;180;0,7;0,0
08/08/2026;23:10:00;1013,1;-32,7;2;28,8;73;171;0,4;0,0
08/08/2026;23:15:00;1013,1;-32,8;2;28,8;73;339;0,4;0,0
08/08/2026;23:20:00;1013,0;-32,9;2;28,8;73;313;0,3;0,0
08/08/2026;23:25:00;1012,9;-33,0;2;28,8;73;45;0,3;0,0
08/08/2026;23:30:00;1012,9;-33,1;2;28,7;73;19;0,3;0,0
08/08/2026;23:35:00;1012,9;-33,2;2;28,7;73;244;0,2;0,0
08/08/2026;23:40:00;1012,8;-33,3;2;28,7;73;251;0,3;0,0
08/08/2026;23:45:00;1012,8;-33,4;2;28,7;73;332;0,4;0,0
08/08/2026;23:50:00;1012,8;-33,4;2;28,6;73;216;0,3;0,0
08/08/2026;23:55:00;1012,7;-33,5;2;28,6;74;252;0,3;0,0
